When you browse on this site, cookies collect data to enhance your experience and personalize the content and advertising you see.
Visit our Privacy Policy to learn more. By continuing to use the site, you agree to this use of cookies and data.
  • în România
  • Lista ţărilor
  • Pe 7 zile
  • Temperatura apei
  • Hartă satelitară
  • Meteo pe hartă
  • Widget-uri
  • user-avatar
    Intrare

    Meteo pe oră la Connaught

    Astăzi, 26 Martie, Marţi

    Timp Temperatura Precipitaţii Vânt Presiune Umiditate
    00:00 +4°C° 0 mm 1 m/s 760 mmHg 91%
    01:00 +4°C° 0 mm 1 m/s 760 mmHg 92%
    02:00 +3°C° 0 mm 1 m/s 760 mmHg 92%
    03:00 +3°C° 0 mm 1 m/s 760 mmHg 93%
    04:00 +2°C° 0 mm 2 m/s 760 mmHg 94%
    05:00 +2°C° 0 mm 2 m/s 760 mmHg 95%
    06:00 +4°C° 0 mm 2 m/s 760 mmHg 91%
    07:00 +6°C° 0 mm 2 m/s 760 mmHg 88%
    08:00 +7°C° 0 mm 3 m/s 760 mmHg 84%
    09:00 +8°C° 0 mm 3 m/s 760 mmHg 81%
    10:00 +9°C° 0 mm 3 m/s 760 mmHg 78%
    11:00 +8°C° 0 mm 4 m/s 760 mmHg 75%
    12:00 +8°C° 0 mm 4 m/s 760 mmHg 74%
    13:00 +8°C° 0 mm 4 m/s 760 mmHg 74%
    14:00 +10°C° 0 mm 4 m/s 760 mmHg 74%
    15:00 +9°C° 0 mm 3 m/s 759 mmHg 76%
    16:00 +9°C° 0 mm 3 m/s 759 mmHg 77%
    17:00 +8°C° 0 mm 3 m/s 759 mmHg 79%
    18:00 +7°C° 0 mm 2 m/s 760 mmHg 82%
    19:00 +6°C° 0 mm 2 m/s 760 mmHg 85%
    20:00 +6°C° 0 mm 2 m/s 760 mmHg 88%
    21:00 +5°C° 0 mm 2 m/s 760 mmHg 90%
    22:00 +5°C° 0 mm 2 m/s 760 mmHg 92%
    23:00 +5°C° 0 mm 2 m/s 760 mmHg 93%

    Mâine, 27 Martie, Miercuri

    Timp Temperatura Precipitaţii Vânt Presiune Umiditate
    00:00 +5°C° 0 mm 2 m/s 760 mmHg 92%
    01:00 +6°C° 0 mm 2 m/s 760 mmHg 90%
    02:00 +6°C° 0 mm 2 m/s 760 mmHg 89%
    03:00 +6°C° 0 mm 2 m/s 760 mmHg 88%
    04:00 +6°C° 0 mm 2 m/s 760 mmHg 87%
    05:00 +6°C° 0 mm 2 m/s 760 mmHg 86%
    06:00 +7°C° 0 mm 3 m/s 760 mmHg 85%
    07:00 +7°C° 0 mm 3 m/s 760 mmHg 84%
    08:00 +8°C° 0 mm 3 m/s 761 mmHg 83%
    09:00 +7°C° 0 mm 4 m/s 761 mmHg 81%
    10:00 +8°C° 0 mm 4 m/s 761 mmHg 80%
    11:00 +8°C° 0 mm 4 m/s 761 mmHg 78%
    12:00 +8°C° 0 mm 4 m/s 761 mmHg 78%
    13:00 +10°C° 0 mm 4 m/s 761 mmHg 77%
    14:00 +10°C° 0 mm 4 m/s 761 mmHg 77%
    15:00 +10°C° 0 mm 3 m/s 761 mmHg 78%
    16:00 +9°C° 0 mm 3 m/s 761 mmHg 79%
    17:00 +9°C° 0 mm 3 m/s 761 mmHg 80%
    18:00 +8°C° 0 mm 2 m/s 761 mmHg 84%
    19:00 +7°C° 0 mm 2 m/s 762 mmHg 87%
    20:00 +6°C° 0 mm 2 m/s 762 mmHg 91%
    21:00 +5°C° 0 mm 2 m/s 762 mmHg 92%
    22:00 +5°C° 0 mm 2 m/s 762 mmHg 93%
    23:00 +5°C° 0 mm 2 m/s 762 mmHg 94%

    Poimâine, 28 Martie, Joi

    Timp Temperatura Precipitaţii Vânt Presiune Umiditate
    00:00 +5°C° 0 mm 2 m/s 762 mmHg 93%
    01:00 +5°C° 0 mm 2 m/s 762 mmHg 92%
    02:00 +5°C° 0 mm 2 m/s 762 mmHg 91%
    03:00 +5°C° 0 mm 2 m/s 762 mmHg 92%
    04:00 +5°C° 0 mm 2 m/s 762 mmHg 93%
    05:00 +5°C° 0 mm 2 m/s 762 mmHg 94%
    06:00 +6°C° 0 mm 2 m/s 762 mmHg 91%
    07:00 +7°C° 0 mm 3 m/s 762 mmHg 89%
    08:00 +8°C° 0 mm 3 m/s 762 mmHg 87%
    09:00 +9°C° 0 mm 3 m/s 762 mmHg 82%
    10:00 +11°C° 0 mm 4 m/s 762 mmHg 77%
    11:00 +12°C° 0 mm 4 m/s 761 mmHg 72%
    12:00 +12°C° 0 mm 4 m/s 761 mmHg 68%
    13:00 +13°C° 0 mm 4 m/s 760 mmHg 65%
    14:00 +13°C° 0 mm 5 m/s 760 mmHg 61%
    15:00 +12°C° 0 mm 4 m/s 760 mmHg 64%
    16:00 +11°C° 0 mm 4 m/s 759 mmHg 67%
    17:00 +10°C° 0 mm 3 m/s 759 mmHg 71%
    18:00 +8°C° 0 mm 3 m/s 759 mmHg 75%
    19:00 +7°C° 0 mm 3 m/s 759 mmHg 78%
    20:00 +4°C° 0 mm 3 m/s 759 mmHg 82%
    21:00 +4°C° 0 mm 3 m/s 758 mmHg 85%
    22:00 +4°C° 0 mm 3 m/s 758 mmHg 88%
    23:00 +4°C° 0 mm 3 m/s 758 mmHg 91%

    29 Martie, Vineri

    Timp Temperatura Precipitaţii Vânt Presiune Umiditate
    00:00 +3°C° 0 mm 3 m/s 757 mmHg 92%
    01:00 +3°C° 0 mm 3 m/s 757 mmHg 93%
    02:00 +3°C° 0 mm 4 m/s 756 mmHg 93%
    03:00 +3°C° 0 mm 3 m/s 756 mmHg 94%
    04:00 +3°C° 0 mm 3 m/s 756 mmHg 94%
    05:00 +3°C° 0 mm 3 m/s 756 mmHg 95%
    06:00 +4°C° 0 mm 4 m/s 756 mmHg 91%
    07:00 +6°C° 0 mm 5 m/s 756 mmHg 87%
    08:00 +8°C° 0 mm 5 m/s 756 mmHg 83%
    09:00 +8°C° 0 mm 5 m/s 756 mmHg 81%
    10:00 +9°C° 0 mm 5 m/s 756 mmHg 79%
    11:00 +10°C° 0 mm 6 m/s 755 mmHg 77%
    12:00 +10°C° 0 mm 5 m/s 755 mmHg 77%
    13:00 +10°C° 0 mm 5 m/s 755 mmHg 76%
    14:00 +10°C° 0 mm 5 m/s 754 mmHg 76%
    15:00 +11°C° 0 mm 4 m/s 754 mmHg 78%
    16:00 +10°C° 0 mm 3 m/s 754 mmHg 80%
    17:00 +10°C° 0 mm 2 m/s 754 mmHg 83%
    18:00 +9°C° 0 mm 2 m/s 754 mmHg 87%
    19:00 +7°C° 0 mm 2 m/s 754 mmHg 91%
    20:00 +6°C° 0 mm 2 m/s 754 mmHg 95%
    21:00 +6°C° 0 mm 2 m/s 754 mmHg 95%
    22:00 +6°C° 0 mm 2 m/s 754 mmHg 96%
    23:00 +5°C° 0 mm 2 m/s 754 mmHg 96%

    30 Martie, Sâmbătă

    Timp Temperatura Precipitaţii Vânt Presiune Umiditate
    00:00 +6°C° 0 mm 2 m/s 754 mmHg 95%
    01:00 +6°C° 0 mm 2 m/s 754 mmHg 94%
    02:00 +7°C° 0 mm 1 m/s 754 mmHg 93%
    03:00 +7°C° 0 mm 1 m/s 754 mmHg 93%
    04:00 +8°C° 0 mm 1 m/s 754 mmHg 93%
    05:00 +8°C° 0 mm 1 m/s 754 mmHg 93%
    06:00 +7°C° 0.1 mm 3 m/s 754 mmHg 92%
    07:00 +5°C° 0.1 mm 4 m/s 755 mmHg 90%
    08:00 +5°C° 0.1 mm 5 m/s 755 mmHg 89%
    09:00 +6°C° 0 mm 5 m/s 755 mmHg 84%
    10:00 +6°C° 0 mm 5 m/s 756 mmHg 79%
    11:00 +7°C° 0 mm 6 m/s 756 mmHg 74%
    12:00 +7°C° 0 mm 6 m/s 756 mmHg 70%
    13:00 +7°C° 0 mm 6 m/s 756 mmHg 67%
    14:00 +7°C° 0 mm 6 m/s 757 mmHg 63%
    15:00 +6°C° 0 mm 5 m/s 757 mmHg 64%
    16:00 +6°C° 0 mm 5 m/s 757 mmHg 65%
    17:00 +5°C° 0 mm 4 m/s 757 mmHg 66%
    18:00 +4°C° 0 mm 4 m/s 758 mmHg 70%
    19:00 +3°C° 0 mm 3 m/s 758 mmHg 73%
    20:00 +1°C° 0 mm 3 m/s 759 mmHg 77%
    21:00 +1°C° 0 mm 3 m/s 759 mmHg 78%
    22:00 +1°C° 0 mm 2 m/s 759 mmHg 79%
    23:00 +1°C° 0 mm 2 m/s 759 mmHg 80%

    31 Martie, Duminică

    Timp Temperatura Precipitaţii Vânt Presiune Umiditate
    00:00 -1°C° 0 mm 2 m/s 759 mmHg 80%
    01:00 -1°C° 0 mm 2 m/s 759 mmHg 80%
    02:00 -1°C° 0 mm 2 m/s 759 mmHg 80%
    03:00 -1°C° 0 mm 2 m/s 760 mmHg 81%
    04:00 -2°C° 0 mm 2 m/s 760 mmHg 82%
    05:00 -2°C° 0 mm 2 m/s 760 mmHg 83%
    06:00 +1°C° 0 mm 2 m/s 760 mmHg 77%
    07:00 +2°C° 0 mm 2 m/s 760 mmHg 71%
    08:00 +4°C° 0 mm 2 m/s 761 mmHg 65%
    09:00 +5°C° 0 mm 2 m/s 761 mmHg 62%
    10:00 +6°C° 0 mm 2 m/s 761 mmHg 58%
    11:00 +8°C° 0 mm 2 m/s 761 mmHg 54%
    12:00 +8°C° 0 mm 2 m/s 761 mmHg 56%
    13:00 +8°C° 0 mm 2 m/s 761 mmHg 57%
    14:00 +8°C° 0 mm 2 m/s 760 mmHg 58%
    15:00 +8°C° 0 mm 2 m/s 760 mmHg 62%
    16:00 +7°C° 0 mm 2 m/s 760 mmHg 66%
    17:00 +8°C° 0 mm 1 m/s 760 mmHg 70%
    18:00 +7°C° 0 mm 1 m/s 760 mmHg 71%
    19:00 +6°C° 0 mm 1 m/s 760 mmHg 73%
    20:00 +5°C° 0 mm 1 m/s 760 mmHg 74%
    21:00 +5°C° 0 mm 1 m/s 759 mmHg 75%
    22:00 +4°C° 0 mm 1 m/s 759 mmHg 76%
    23:00 +4°C° 0 mm 1 m/s 759 mmHg 77%
    Arată mai mult